Weather WX

World > North America > United States > Nevada

Patrick, Nevada Regional Weather

Lat: 39.55N, Lon: 119.58W
Wx Zone: NVZ003
Warning FLW WEATHER ALERT - WIND ADVISORY (More Info. Click Here) Warning
Feedback

Patrick, NV Regional Weather

Expires:201906251000;;046056
ASUS45 KREV 250910
RWRNV 
NEVADA REGIONAL WEATHER ROUNDUP
NATIONAL WEATHER SERVICE RENO NV
200 AM PDT TUE JUN 25 2019

NOTE: "FAIR" INDICATES FEW OR NO CLOUDS BELOW 12,000 FEET WITH NO
SIGNIFICANT WEATHER AND/OR OBSTRUCTIONS TO VISIBILITY.


NVZ001-003-004-251000-
WESTERN NEVADA
  
CITY           SKY/WX    TMP DP  RH WIND       PRES   REMARKS
RENO           PTCLDY    66  35  31 VRB3      29.95F                  
CARSON CITY    FAIR      61  34  36 SW5       29.96S                  
MINDEN         FAIR      45  32  61 E7        29.98S                  
SLIDE MTN        N/A     43  21  42 W26         N/A                   
PYRAMID LAKE     N/A     68 N/A N/A W1          N/A                   
FALLON         CLOUDY    69  35  28 W12       29.91                   
LOVELOCK       CLOUDY    70  35  27 W7        29.91S                  
HAWTHORNE      CLEAR     72  25  17 NW13      29.92S                  
$$


SKY/WX - Weather  TMP - Temperature  DP - Dew Point  RH - Relative Humidity
WIND - Wind Direction/Speed PRES - Barometric Pressure VSB - Visibility
WCI - Wind Chill Index E13G22 Wind - East Wind 13 mph/Gusts of 22 mph